Location: Arbon
(43.0005°N, 0.7472°E)
Time: 15:51:37
(UTC+00:00)

Vanguard 3 - Visible Passes

Search period start: 26 November 2020 00:00
Search period end: 06 December 2020 00:00
Orbit: 508 x 3262 km, 33.3° (Epoch: 25 November)

Date Brightness Start Highest point End Pass type
(mag) Time Alt. Az. Time Alt. Az. Time Alt. Az.
26 Nov 10.7 02:07:41 13° SE 02:07:41 13° SE 02:08:52 10° SE visible
26 Nov 10.3 04:12:15 15° SSW 04:12:43 15° SSW 04:19:05 10° S visible
27 Nov 10.5 03:02:32 15° S 03:02:32 15° S 03:05:26 10° SSE visible
03 Dec 8.8 18:20:17 10° S 18:21:47 11° SSE 18:22:24 11° SSE visible
04 Dec 9.1 19:16:16 10° SW 19:17:10 13° SSW 19:17:10 13° SSW visible
05 Dec 8.7 18:02:33 10° SSW 18:05:36 15° S 18:07:22 13° SE visible
